Simultaneous Nadir Overpasses (SNOs) Predictions

Prediction of SNOs between FY3D and AQUA Satellite Orbit:

Table of predicted SNOs for the next 14.0 days since TLE Epoch: 11/13/2020
Index Date (FY3D) Time (FY3D) Lat,Lon (FY3D) SZA (FY3D ) Date (AQUA) Time (AQUA) Lat,Lon (AQUA) SZA (AQUA ) Distance(km) Time Diff (sec)
1 11/15/2020 14:18:48 -50.55, -0.81 43.56 11/15/2020 14:18:47 -50.55, -0.80 43.56 0.42 1
2 11/15/2020 15:06:45 59.89, 171.80 129.04 11/15/2020 15:05:32 59.89, 171.79 129.18 0.52 73
3 11/18/2020 06:35:27 -49.56, 114.67 42.23 11/18/2020 06:35:32 -49.56, 114.66 42.23 0.58 5
4 11/18/2020 07:23:21 59.10, -72.83 130.34 11/18/2020 07:22:14 59.09, -72.84 130.47 0.77 67
5 11/20/2020 22:52:32 -47.02,-130.49 39.84 11/20/2020 22:52:42 -47.03,-130.47 39.88 1.62 10
6 11/20/2020 23:39:53 58.46, 42.67 131.46 11/20/2020 23:38:52 58.46, 42.65 131.59 1.54 61
7 11/23/2020 15:08:55 -46.95, -14.59 39.26 11/23/2020 15:09:11 -46.97, -14.61 39.30 2.36 16
8 11/23/2020 15:56:50 56.47, 157.36 133.64 11/23/2020 15:55:54 56.47, 157.38 133.74 1.25 56
9 11/26/2020 07:25:08 -47.45, 101.53 39.09 11/26/2020 07:25:31 -47.44, 101.46 39.09 5.86 23
